Tracking 34408 objects as of 14-Jun-2026
HD Live streaming from Space Station
objects crossing your sky now

COSMOS 1275 DEB

Track COSMOS 1275 DEB now!
10-day predictions


NORAD ID: 39936
Int'l Code: 1981-053NC
Perigee: 889.4 km
Apogee: 974.4 km
Inclination: 83.1 °
Period: 103.5 minutes
Semi major axis: 7302 km
RCS: 0.0039 m2 (small)
Launch date: April 25, 1981
Source: Commonwealth of Independent States (former USSR) (CIS)
Launch site: PLESETSK MISSILE AND SPACE COMPLEX (PKMTR)

Note: This is SATELLITE DEBRIS
Your satellite tracking list
Your tracking list is empty




NASA's NSSDC Master Catalog

Two Line Element Set (TLE):
1 39936U 81053MW  26162.40864625  .00000979  00000-0  75607-3 0  9992
2 39936  83.1483 203.8186 0058160 200.2107 159.6757 13.91107884597855
Source of the keplerian elements: AFSPC